www.pogodaiklimat.ru

Погода и климат >> Архив погоды >> Австралия >> Северная территория >> Пойнт Стьюарт


ПОГОДА в Пойнт Стьюарт

  • Прогноз погоды в Пойнт Стьюарт
  • Монитор погоды в Пойнт Стьюарт

АРХИВ ПОГОДЫ в Пойнт Стьюарт

Время (UTC), дата Ветер
(напр.,м/с)
 
Видим.   Явления Облачность Т
(С)
Тd
(С)
f
(%)
Тe
(С)
Тes
(С)
Комфортность P
(гПа)
Po
(гПа)
Тmin
(С)
Tmax
(С)
R
(мм)
R24
(мм)
S
(см)
11 15.01 СЗ 3 н/о н/о +28.4 +26.2 88 +43 +43 опасность
перегрева
1007.3 1007.1 0.2
14 15.01 В 7 н/о {туман} н/о +24.0 +24.0 100 +33 +33 очень
душно
1008.6 1008.4 +33.6
17 15.01 В 3 н/о {туман} н/о +23.9 +23.9 100 +33 +33 очень
душно
1007.1 1006.9
20 15.01 штиль 0 н/о {туман} н/о +24.1 +24.1 100 +33 +33 очень
душно
1006.9 1006.7
23 15.01 В 3 н/о {туман} н/о +26.3 +26.3 100 +40 +40 очень
душно
1007.9 1007.7 30
02 16.01 В 3 н/о н/о +29.1 +25.3 80 +42 +42 опасность
перегрева
1007.7 1007.5 +23.6
05 16.01 В 2 н/о н/о +31.6 +26.8 76 +49 +49 опасность
перегрева
1005.5 1005.3
08 16.01 СВ 3 н/о н/о +31.7 +26.0 72 +47 +47 опасность
перегрева
1004.6 1004.4
11 16.01 СВ 3 н/о н/о +27.3 +25.9 92 +41 +41 опасность
перегрева
1006.9 1006.7
14 16.01 штиль 0 н/о н/о +26.3 +25.8 97 +39 +39 очень
душно
1007.5 1007.3 +32.9
17 16.01 СВ 3 н/о н/о +25.7 +25.5 99 +37 +37 очень
душно
1006.3 1006.1
20 16.01 СВ 1 н/о н/о +24.6 +24.6 100 +34 +34 очень
душно
1006.1 1005.9
23 16.01 СВ 3 н/о н/о +27.1 +25.9 93 +40 +40 очень
душно
1007.8 1007.6
02 17.01 СВ 1 н/о н/о +31.9 +25.2 68 +46 +46 опасность
перегрева
1006.5 1006.3 +24.2
05 17.01 С 3 н/о н/о +32.7 +25.2 65 +47 +47 опасность
перегрева
1004.1 1003.9
08 17.01 СЗ 2 н/о н/о +28.7 +26.5 88 +44 +44 опасность
перегрева
1002.8 1002.6
11 17.01 ЮВ 3 н/о н/о +25.8 +23.8 89 +35 +35 очень
душно
1006.2 1006.0
14 17.01 ЮВ 7 н/о {туман} н/о +24.8 +24.8 100 +35 +35 очень
душно
1008.5 1008.3 +33.6
17 17.01 штиль 0 н/о {туман} н/о +24.1 +24.1 100 +33 +33 очень
душно
1005.5 1005.3
20 17.01 ЮВ 2 н/о н/о +24.2 +24.2 100 +33 +33 очень
душно
1005.0 1004.8
23 17.01 ЮВ 2 н/о н/о +25.6 +24.4 93 +36 +36 очень
душно
1006.7 1006.5 21
02 18.01 ЮВ 1 н/о н/о +29.4 +25.4 79 +43 +43 опасность
перегрева
1006.9 1006.7 +24.1
05 18.01 ЮВ 2 н/о н/о +32.5 +26.1 69 +48 +48 опасность
перегрева
1004.7 1004.5
08 18.01 Ю 2 н/о н/о +29.8 +24.9 75 +43 +43 опасность
перегрева
1004.9 1004.7
11 18.01 СВ 1 н/о {туман} н/о +26.2 +26.0 99 +39 +39 очень
душно
1007.2 1007.0 0.4
14 18.01 СВ 3 н/о н/о +25.7 +25.7 100 +38 +38 очень
душно
1008.0 1007.8 +32.9
17 18.01 СВ 2 н/о н/о +24.8 +24.8 100 +35 +35 очень
душно
1006.3 1006.1
20 18.01 СВ 2 н/о н/о +24.7 +24.7 100 +35 +35 очень
душно
1006.3 1006.1
23 18.01 СВ 3 н/о н/о +29.4 +27.0 87 +46 +46 опасность
перегрева
1008.5 1008.3 0.4
02 19.01 В 4 н/о {туман} н/о +30.5 +27.3 83 +49 +49 опасность
перегрева
1008.1 1007.9 +24.7
05 19.01 СВ 2 н/о {туман} н/о +29.0 +26.6 87 +45 +45 опасность
перегрева
1006.3 1006.1 0.2
08 19.01 штиль 0 н/о {туман} н/о +27.8 +27.3 97 +44 +44 опасность
перегрева
1005.0 1004.8
11 19.01 СВ 3 н/о {туман} н/о +26.9 +26.9 100 +42 +42 опасность
перегрева
1007.7 1007.5 3
14 19.01 штиль 0 н/о н/о +25.9 +25.9 100 +38 +38 очень
душно
1007.8 1007.6 +33.1
17 19.01 СВ 1 н/о н/о +25.4 +25.4 100 +37 +37 очень
душно
1006.2 1006.0
20 19.01 СВ 2 н/о {туман} н/о +25.4 +25.4 100 +37 +37 очень
душно
1006.2 1006.0
23 19.01 СВ 3 н/о {туман} н/о +27.3 +26.2 94 +41 +41 опасность
перегрева
1007.9 1007.7 3
02 20.01 СВ 4 н/о н/о +30.7 +26.8 80 +48 +48 опасность
перегрева
1006.7 1006.5 +25.3
05 20.01 В 2 н/о н/о +30.6 +27.6 84 +49 +49 опасность
перегрева
1004.7 1004.5
08 20.01 штиль 0 н/о н/о +29.2 +27.8 92 +48 +48 опасность
перегрева
1005.4 1005.2
11 20.01 СВ 1 н/о {туман} н/о +27.4 +27.4 100 +44 +44 опасность
перегрева
1006.9 1006.7 5
14 20.01 СВ 3 н/о н/о +26.5 +26.5 100 +40 +40 очень
душно
1007.3 1007.1 +31.7
17 20.01 В 5 н/о н/о +26.8 +25.4 92 +39 +39 очень
душно
1005.2 1005.0
20 20.01 В 4 н/о н/о +27.0 +25.8 93 +40 +40 очень
душно
1005.1 1004.9
23 20.01 В 6 н/о н/о +29.1 +25.7 82 +43 +43 опасность
перегрева
1006.7 1006.5 5
02 21.01 СВ 6 н/о н/о +30.8 +25.8 75 +46 +46 опасность
перегрева
1006.6 1006.4 +26.4
05 21.01 СВ 5 н/о н/о +32.3 +27.1 74 +50 +50 опасность
перегрева
1004.2 1004.0
08 21.01 СВ 5 н/о н/о +30.5 +26.2 78 +46 +46 опасность
перегрева
1004.4 1004.2
11 21.01 В 3 н/о н/о +28.5 +26.9 91 +45 +45 опасность
перегрева
1006.4 1006.2
14 21.01 В 3 н/о {туман} н/о +26.0 +26.0 100 +39 +39 очень
душно
1007.3 1007.1 +32.8
17 21.01 В 5 н/о {туман} н/о +25.7 +25.7 100 +38 +38 очень
душно
1006.0 1005.8
20 21.01 В 4 н/о {туман} н/о +26.7 +26.4 98 +41 +41 опасность
перегрева
1005.7 1005.5
23 21.01 СВ 3 н/о {туман} н/о +28.5 +26.5 89 +44 +44 опасность
перегрева
1006.9 1006.7 35

 

Местоположение метеостанции Пойнт Стьюарт (Северная территория, Австралия): широта -12.23 долгота 131.88 высота над уровнем моря 1 м.

В архиве по умолчанию представлена погода в Пойнт Стьюарт за последнюю неделю. Архивные данные за месяц целиком и за предыдущие месяцы, начиная с января 2011 года, Вы можете получить, выбрав интересующий диапазон дат из раскрывающегося списка и нажав кнопку "Ввод!".


*Определитесь, кто Вы:
робот инопланетянин человек

Внимание! Время в таблицах - всемирное. Для получения местного времени необходимо прибавить поправку, которая равна 9.5 ч.

Смотрите также архив погоды в соседних городах и на ближайших метеорологических станциях:

Погода в Милд Пойнт (Северная территория, Австралия) (75 км)
Погода в Кейп-Доне (Северная территория, Австралия) (102 км)
Погода в Дарвине (Северная территория, Австралия) (110 км)
Погода в Джаберу (Северная территория, Австралия) (121 км)
Погода в Батчелоре (Северная территория, Австралия) (130 км)
Погода на Острове Дам-ин-Мирре (Северная территория, Австралия) (170 км)
Погода в Уорруви (Северная территория, Австралия) (176 км)
Погода на Острове Маклер (Северная территория, Австралия) (178 км)
Погода на Центральном плато Арнем (Северная территория, Австралия) (179 км)
Погода в Гарден-Пойнте (Северная территория, Австралия) (184 км)

Пояснения к столбцам:

Ветер - указаны скорость ветра в м/с - средняя за 10 мин, порывы в срок и между сроками (в фигурных скобках) и направление, откуда дует ветер: С - северный, СВ - северо-восточный, В - восточный, ЮВ - юго-восточный, Ю - южный, ЮЗ - юго-западный, З - западный, СЗ - северо-западный.
Видимость - горизонтальная дальность видимости в метрах или километрах. При видимости от 1 до 10 км при отсутствии осадков обычно наблюдается дымка, при ухудшении видимости до 1 км и менее - туман. В сухую погоду видимость может ухудшаться дымом, пылью или мглою.
Явления - указаны атмосферные явления, наблюдавшиеся в срок или в последний час перед сроком; фигурными скобками обозначены явления, наблюдавшиеся между сроками (за 1-3 часа до срока); квадратными скобками обозначены град или гололедные отложения с указанием их диаметра в мм.
Облачность - указаны через наклонную черту общая и нижняя облачность в баллах и высота нижней границы облаков в метрах; квадратными скобками обозначены формы облаков: Ci - перистые, Cs - перисто-слоистые, Cc - перисто-кучевые, Ac - высококучевые, As - высокослоистые, Sc - слоисто-кучевые, Ns - слоисто-дождевые, Cu - кучевые, Cb - кучево-дождевые. Подробнее классификацию облаков см. в Атласе облаков (PDF).
T - Температура воздуха - температура, измеренная на высоте 2 м над землей.
Td - Температура точки росы - температура, при понижении до которой содержащийся в воздухе водяной пар достигнет насыщения.
f - Относительная влажность воздуха - влажноcть воздуха, измеренная на высоте 2 м над землей.
Te - Эффективная температура - температура, которую ощущает одетый по сезону человек в тени. Характеристика душности погоды. При расчете учитывается влияние влажности воздуха и скорости ветра на теплоощущения человека.
Tes - Эффективная температура на солнце - температура, которую ощущает человек, с поправкой на солнечный нагрев. Характеристика знойности погоды. Зависит от высоты солнца над горизонтом, облачности и скорости ветра. Ночью, в пасмурную погоду, а также при ветре 12 м/с и более поправка равна нулю.
P - Атмосферное давление - приведенное к уровню моря атмосферное давление.
Po - Атмосферное давление - измеренное на уровне метеостанции атмосферное давление.
Tmin - Минимальная температура - минимум температуры воздуха на высоте 2 м над землей.
Tmax - Максимальная температура - максимум температуры воздуха на высоте 2 м над землей.
R - Количество осадков - Количество выпавших осадков за период времени, мм. При наведении курсора мыши на число - период времени, за который выпало указанное количество осадков.
R24 - Количество осадков - Количество выпавших осадков за 24 часа, мм.
S - Снежный покров - Высота снежного покрова, см. При наведении курсора мыши на число - состояние снежного покрова и степень покрытия местности в баллах.